Погода в Мелекшине

Россия / Рязанская область     54°09′28″N   40°11′51″E
темп.,
°C
ветер,
м/с
пор.,
м/с
влажн.,
%
обл.,
%
осадки,
мм/ч
давл.,
гПа
погр.,
м
12 августа, пт
пт1200:00+16св36650 0.0 102482
03:00+14всв33750 0.0 102531
06:00+15св34800 0.0 102590
09:00+22всв34572 0.0 1025499
12:00+26св33415 0.0 10241292
15:00+27ссв323523 0.0 10231387
18:00+26ссв234428 0.0 1022131
21:00+19св225836 0.0 102317
13 августа, сб
сб1300:00+18св336018 0.0 102326
03:00+16св226617 0.0 102317
06:00+16всв226920 0.0 102338
09:00+23всв33492 0.0 1022408
12:00+27св32360 0.0 10221164
15:00+29ссв22320 0.0 10201545
18:00+27с34410 0.0 1019155
21:00+20св46519 0.0 102073
14 августа, вс
вс1400:00+18всв34567 0.0 102043
03:00+16в226218 0.0 102024
06:00+17всв3464100 0.0 102068
09:00+24вюв3545100 0.0 1020422
12:00+28в443564 0.0 10191290
15:00+29всв333227 0.0 10181764
18:00+28всв12395 0.0 101870
21:00+21всв22515 0.0 101813
15 августа, пн
пн1500:00+19всв33555 0.0 101921
03:00+17в33605 0.0 101935
06:00+18всв36725 0.0 1020123
09:00+25в57505 0.0 1019601
12:00+29вюв563616 0.0 10192140
15:00+31в55285 0.0 10192577
18:00+29в57355 0.0 1019532
21:00+22в512493 0.0 1020234
16 августа, вт
вт1600:00+20вюв412554 0.0 1021238
03:00+18в410652 0.0 1021183
06:00+18в410682 0.0 1022201
09:00+25вюв694525 0.0 1022760
12:00+29вюв78345 0.0 10212066
15:00+30в78303 0.0 10202374
18:00+29в693551 0.0 10191062
21:00+24в71442100 0.0 1020519